Location: *
(47.7506°N, 3.1864°W)
Time: 09:33:24
(UTC+00:00)

Daily predictions for brighter satellites

Satellite Brightness Start Highest point End
(mag) Time Altitude Azimuth Time Altitude Azimuth Time Altitude Azimuth
STARLINK-1269 4.2 19:05:34 10° SSW 19:09:17 36° SE 19:13:00 10° ENE
Okean 1 Rocket 3.7 19:06:27 10° SSW 19:10:47 61° WNW 19:15:06 10° N
ERBS 2.8 19:07:53 10° WSW 19:11:14 61° NNW 19:14:34 10° NE
STARLINK-1094 3.6 19:07:28 10° WNW 19:11:29 74° NNE 19:15:29 10° ESE
Cosmos 1544 Rocket 4.3 19:08:42 10° SSE 19:12:35 32° E 19:16:31 10° NNE
STARLINK-1073 4.5 19:08:40 10° WNW 19:12:38 42° N 19:16:36 10° E
Cosmos 1745 Rocket 4.0 19:06:27 10° N 19:12:48 74° E 19:19:02 10° SSE
STARLINK-1200 4.1 19:10:11 10° SSW 19:13:56 38° SE 19:17:44 10° ENE
Cosmos 2297 4.0 19:08:39 10° NNW 19:14:11 50° ENE 19:19:42 10° SE
NOSS 0 Rocket 4.1 19:08:30 10° SSW 19:14:43 86° WNW 19:20:58 10° NNE
HJ-1C 3.4 19:11:31 10° SSE 19:14:51 87° ENE 19:18:14 10° NNW
STARLINK-1117 3.6 19:11:59 10° WNW 19:16:00 78° NNE 19:20:01 10° ESE
USA 234 3.8 19:10:31 10° ENE 19:16:30 37° SE 19:22:27 10° SSW
STARLINK-1121 4.4 19:13:41 10° WNW 19:17:39 43° N 19:21:37 10° E
Meteor 2-5 Rocket 3.7 19:12:27 10° N 19:18:10 86° E 19:23:45 10° SSE
STARLINK-1192 4.0 19:14:45 10° SSW 19:18:34 41° SE 19:22:24 10° ENE
STARLINK-1078 3.5 19:16:28 10° WNW 19:20:30 82° NNE 19:24:26 11° ESE
Cosmos 2237 Rocket 2.2 19:15:09 10° SSW 19:20:46 88° ESE 19:26:27 10° NNE
ADEOS Rocket 3.5 19:14:07 10° NNE 19:21:02 75° WNW 19:27:11 10° SSW
Cosmos 1805 3.2 19:17:11 10° S 19:21:05 81° E 19:25:00 10° NNE
STARLINK-1106 4.4 19:18:39 10° WNW 19:22:38 44° N 19:26:37 10° E
STARLINK-1244 3.9 19:19:30 10° SW 19:23:21 45° SE 19:27:13 10° ENE
STARLINK-1201 3.0 19:20:28 10° SW 19:23:41 63° SSE 19:26:57 10° ENE
Cosmos 1302 Rocket 4.4 19:19:02 10° NNW 19:24:06 45° ENE 19:29:08 10° SE
STARLINK-1108 3.5 19:21:00 10° WNW 19:25:02 87° NNE 19:28:47 12° ESE
Cosmos 2278 Rocket 3.3 19:20:59 10° NW 19:26:24 47° WSW 19:31:48 10° S
STARLINK-1112 4.4 19:23:39 10° WNW 19:27:40 45° NNE 19:31:27 11° E
CZ-2C R/B 3.9 19:24:09 10° NE 19:27:45 19° E 19:31:20 10° SE
STARLINK-1138 3.8 19:24:07 10° SW 19:28:01 48° SE 19:31:56 10° ENE
Cosmos 1269 Rocket 4.2 19:23:14 10° S 19:28:17 49° ESE 19:33:24 10° NNE
STARLINK-1209 2.6 19:26:07 10° WSW 19:29:02 88° NNW 19:31:56 10° ENE
STARLINK-1066 3.3 19:26:21 10° WNW 19:29:28 59° SSW 19:32:18 12° SE
STARLINK-1071 3.5 19:25:31 10° WNW 19:29:33 89° SSW 19:33:08 13° ESE
STARLINK-1081 3.3 19:26:49 10° WNW 19:29:54 59° SSW 19:32:41 12° SE
STARLINK-1228 2.6 19:27:07 10° WSW 19:30:00 86° NNW 19:32:53 10° ENE
STARLINK-1070 3.3 19:27:16 10° WNW 19:30:21 58° SSW 19:33:06 12° SE
STARLINK-1124 3.6 19:26:24 10° WNW 19:30:34 88° SSW 19:34:14 13° ESE
STARLINK-1069 3.3 19:27:40 10° WNW 19:30:46 58° SSW 19:33:34 12° SE
STARLINK-1085 3.3 19:28:07 10° WNW 19:31:13 57° SSW 19:34:00 12° SE
STARLINK-1086 3.3 19:28:37 10° WNW 19:31:42 56° SSW 19:34:25 12° SE
Cosmos 1553 Rocket 4.3 19:26:03 10° SSW 19:32:05 71° W 19:38:12 10° N
STARLINK-1095 3.3 19:29:04 10° WNW 19:32:08 56° SSW 19:34:50 13° SE
STARLINK-1077 3.3 19:29:30 10° WNW 19:32:35 56° SSW 19:35:16 13° SE
STARLINK-1128 4.3 19:28:40 10° WNW 19:32:41 46° NNE 19:36:15 13° E
STARLINK-1143 3.8 19:28:51 10° SW 19:32:47 52° SE 19:36:44 10° ENE
STARLINK-1075 3.3 19:29:58 10° WNW 19:33:02 55° SSW 19:35:42 13° SE
STARLINK-1093 3.4 19:30:23 10° WNW 19:33:29 55° SSW 19:36:10 13° SE
Meteor 1-24 Rocket 3.6 19:27:55 10° N 19:33:32 86° E 19:38:54 10° SSE
SL-8 R/B 3.7 19:28:45 10° W 19:33:33 83° N 19:38:02 12° E
STARLINK-1074 3.4 19:30:49 10° WNW 19:33:55 54° SSW 19:36:36 13° SE
SeaSat 1 4.1 19:29:22 10° NNE 19:33:56 38° NW 19:38:28 10° WSW
STARLINK-1110 3.6 19:30:02 10° WNW 19:34:04 84° SSW 19:37:29 14° ESE
STARLINK-1087 3.4 19:31:19 10° WNW 19:34:23 54° SSW 19:37:00 13° SE
CZ-4 R/B 4.2 19:31:50 10° SW 19:34:44 20° W 19:37:40 10° NW
STARLINK-1088 3.4 19:31:47 10° WNW 19:34:50 53° SSW 19:37:26 13° SE
ARGOS 3.2 19:29:39 10° SSE 19:35:00 66° ENE 19:40:22 10° N
STARLINK-1115 3.4 19:32:12 10° WNW 19:35:17 53° SW 19:37:55 13° SE
STARLINK-1076 3.4 19:32:38 10° WNW 19:35:43 53° SSW 19:38:20 13° SE
STARLINK-1092 3.4 19:33:06 10° WNW 19:36:11 52° SSW 19:38:47 14° SE
STARLINK-1080 3.4 19:33:35 10° WNW 19:36:38 51° SW 19:39:10 14° SE
STARLINK-1090 3.5 19:34:02 10° WNW 19:37:04 51° SW 19:39:36 14° SE
STARLINK-1089 3.5 19:34:29 10° WNW 19:37:32 50° SW 19:40:02 14° SE
STARLINK-1113 4.2 19:33:39 10° WNW 19:37:41 48° NNE 19:41:02 14° E
STARLINK-1107 3.5 19:34:56 10° WNW 19:37:59 50° SW 19:40:28 14° SE
MOS 1 4.3 19:33:41 10° SSE 19:39:19 77° ENE 19:44:59 10° NNW
Cosmos 1470 3.3 19:37:50 10° SSE 19:41:23 36° E 19:44:59 10° NNE
STARLINK-1119 4.2 19:38:37 10° WNW 19:42:40 49° NNE 19:45:48 16° E
STARLINK-1241 3.6 19:39:14 10° SW 19:43:11 61° SSE 19:47:06 10° ENE
STARLINK-1122 3.6 19:39:12 10° WNW 19:43:14 75° SSW 19:46:18 17° SE
STARLINK-1233 2.8 19:40:18 10° WSW 19:43:26 89° NW 19:46:21 12° ENE
STARLINK-1212 2.8 19:40:46 10° WSW 19:43:53 88° NW 19:46:46 12° ENE
STARLINK-1105 2.8 19:41:12 10° WSW 19:44:21 87° NNW 19:47:13 12° ENE
STARLINK-1206 2.8 19:41:42 10° WSW 19:44:48 87° NW 19:47:38 12° ENE
STARLINK-1247 2.8 19:42:08 10° WSW 19:45:15 86° NNW 19:48:03 12° ENE
Cosmos 2315 Rocket 4.1 19:39:29 10° S 19:45:37 57° E 19:51:51 10° NNE
STARLINK-1227 2.8 19:42:33 10° WSW 19:45:41 86° NNW 19:48:30 12° ENE
ATLAS CENTAUR R/B 4.3 19:44:03 10° NW 19:45:43 12° NNW 19:47:22 10° N
ISS -2.9 19:42:35 10° WNW 19:45:50 44° N 19:48:11 16° ENE
SL-08 RB Rocket 3.8 19:41:43 10° SSE 19:46:08 58° ENE 19:50:37 10° N
STARLINK-1218 2.8 19:43:03 10° WSW 19:46:10 85° NNW 19:48:55 13° ENE
STARLINK-1226 2.8 19:43:30 10° WSW 19:46:38 84° NNW 19:49:23 13° ENE
STARLINK-1254 2.9 19:43:54 10° WSW 19:47:02 84° NNW 19:49:48 13° ENE
SJ-6B 2.8 19:43:11 10° SSE 19:47:13 71° ENE 19:51:21 10° N
STARLINK-1215 2.9 19:44:24 10° WSW 19:47:31 83° NNW 19:50:14 13° ENE
STARLINK-1114 4.1 19:43:38 10° WNW 19:47:41 51° NNE 19:50:36 18° E
STARLINK-1239 3.5 19:43:47 10° SW 19:47:46 65° SSE 19:51:31 11° ENE
MetOp-A 4.4 19:42:41 10° SE 19:47:50 49° ENE 19:53:00 10° N
STARLINK-1126 3.7 19:43:50 10° WNW 19:47:51 70° SSW 19:50:44 18° SE
STARLINK-1231 2.9 19:44:50 10° WSW 19:47:57 83° NNW 19:50:39 13° ENE
Resurs 1-3 4.2 19:44:43 14° SE 19:48:06 39° ENE 19:52:11 10° N
STARLINK-1232 2.9 19:45:45 10° WSW 19:48:51 82° NNW 19:51:31 14° ENE
Cosmos 1758 3.7 19:45:26 10° SSE 19:49:17 42° E 19:53:10 10° NNE
STARLINK-1217 2.9 19:46:12 10° WSW 19:49:19 81° NNW 19:51:58 14° ENE
STARLINK-1208 2.9 19:46:37 10° WSW 19:49:46 81° NNW 19:52:25 14° ENE
STARLINK-1229 2.9 19:47:06 10° WSW 19:50:13 80° NNW 19:52:49 14° ENE
STARLINK-1271 2.9 19:47:34 10° WSW 19:50:41 79° NNW 19:53:17 14° ENE
BREEZE-M DEB (TANK) 4.1 19:42:16 10° W 19:50:47 71° N 19:53:10 18° E
STARLINK-1270 2.9 19:48:01 10° WSW 19:51:08 79° NNW 19:53:42 14° ENE
STARLINK-1154 2.9 19:48:27 10° WSW 19:51:34 78° NNW 19:54:07 14° ENE
Cosmos 304 Rocket 4.3 19:46:53 10° NNW 19:51:37 60° WSW 19:56:17 10° S
STARLINK-1240 3.5 19:48:22 10° SW 19:52:22 69° SSE 19:55:55 13° ENE
STARLINK-1082 3.8 19:48:24 10° WNW 19:52:24 66° SSW 19:55:08 19° SE
STARLINK-1197 2.9 19:49:21 10° WSW 19:52:28 77° NNW 19:54:59 15° ENE
STARLINK-1130 (DARKSAT) 4.1 19:48:35 10° WNW 19:52:40 53° NNE 19:55:22 20° E
STARLINK-1189 2.9 19:49:49 10° WSW 19:52:55 77° NNW 19:55:26 15° ENE
CZ-2C R/B 3.0 19:48:35 10° SSE 19:53:40 84° WSW 19:58:33 10° NNW
STARLINK-1187 3.1 19:50:40 10° WSW 19:53:48 69° NNW 19:56:20 14° ENE
STARLINK-1188 3.0 19:50:42 10° WSW 19:53:49 76° NNW 19:56:17 15° ENE
STARLINK-1198 3.0 19:50:57 10° WSW 19:54:03 75° NNW 19:56:31 15° ENE
Cosmos 2369 Rocket 3.0 19:49:11 10° NNW 19:54:27 36° NE 19:57:50 19° ESE
STARLINK-1235 3.3 19:51:22 10° WSW 19:54:29 63° NNW 19:57:05 14° ENE
Abrixas rocket 4.1 19:53:13 10° S 19:54:14 14° SSE 19:54:14 14° SSE
Resurs 01 Rocket 2.4 19:53:04 19° ESE 19:55:29 33° ENE 19:59:28 10° N
STARLINK-1199 3.0 19:52:39 10° WSW 19:55:46 74° NNW 19:58:13 16° ENE
FREGAT/IRIS 3.1 19:53:26 10° S 19:56:05 53° W 19:58:47 10° NNW
STARLINK-1191 3.0 19:53:07 10° WSW 19:56:14 73° NNW 19:58:39 16° ENE
STARLINK-67 3.5 19:53:47 10° W 19:56:16 40° NNW 19:58:04 16° NE
STARLINK-1210 3.0 19:53:33 10° WSW 19:56:41 73° NNW 19:59:05 16° ENE
STARLINK-1100 3.8 19:52:58 10° WNW 19:56:58 62° SSW 19:59:31 21° SE
STARLINK-1216 3.4 19:52:58 10° SW 19:56:59 74° SSE 20:00:22 14° ENE
STARLINK-1221 3.0 19:54:01 10° WSW 19:57:09 72° NNW 19:59:33 16° ENE
STARLINK-1219 3.1 19:54:28 10° WSW 19:57:36 72° NNW 19:59:58 16° ENE
STARLINK-1084 4.0 19:53:34 10° WNW 19:57:39 55° NNE 20:00:09 22° E
Cosmos 1733 3.8 19:54:13 10° SSW 19:57:56 58° WNW 20:01:41 10° N
STARLINK-1222 3.1 19:54:54 10° WSW 19:58:02 71° NNW 20:00:22 17° ENE
STARLINK-1211 3.1 19:55:22 10° WSW 19:58:29 71° NNW 20:00:48 17° ENE
STARLINK-1214 3.1 19:55:49 10° WSW 19:58:57 70° NNW 20:01:15 17° ENE
STARLINK-1245 3.1 19:56:19 10° WSW 19:59:26 70° NNW 20:01:40 17° ENE
STARLINK-1238 3.1 19:56:44 10° WSW 19:59:51 69° NNW 20:02:08 17° ENE
Meteor 1-22 Rocket 4.3 19:54:49 10° SSW 20:00:06 72° WNW 20:05:25 10° N
STARLINK-1205 3.1 19:57:41 10° WSW 20:00:47 68° NNW 20:02:59 18° ENE
STARLINK-1204 3.1 19:58:07 10° WSW 20:01:13 68° NNW 20:03:23 18° ENE
STARLINK-1083 3.9 19:57:35 10° WNW 20:01:34 58° SW 20:03:57 22° SE
STARLINK-1237 3.4 19:57:37 10° SW 20:01:38 79° SSE 20:04:52 15° ENE
Cosmos 494 Rocket 4.4 19:57:22 10° SSW 20:02:29 66° WNW 20:07:40 10° NNE
STARLINK-1098 3.9 19:58:32 10° WNW 20:02:39 57° NNE 20:04:55 24° E
SL-14 R/B 3.8 20:01:33 10° NNW 20:05:35 64° W 20:09:32 10° S
Cosmos 1726 3.5 20:06:30 22° ENE 20:06:30 22° ENE 20:08:56 10° NE
SPOT 3 Rocket 3.5 20:00:46 10° SSE 20:05:58 75° ENE 20:11:13 10° NNW
STARLINK-1125 4.0 20:02:13 10° WNW 20:06:11 54° SW 20:08:23 24° SSE
STARLINK-1202 3.4 20:02:14 10° WSW 20:06:15 84° SSE 20:09:19 17° ENE
STARLINK-1123 3.9 20:03:33 10° WNW 20:07:40 60° NNE 20:09:44 27° E
Meteor 1-21 Rocket 4.3 20:02:13 10° N 20:07:42 54° ENE 20:11:31 19° SE
Cosmos 1709 Rocket 4.1 20:04:12 10° NNW 20:10:25 76° W 20:16:32 10° S
STARLINK-1109 4.1 20:06:33 10° WNW 20:10:28 50° SW 20:12:32 25° SSE
CZ-4C R/B 4.5 20:06:00 10° WNW 20:10:29 22° NNW 20:15:35 10° NE
IRIDIUM 103 4.4 20:05:31 10° N 20:10:40 57° E 20:14:45 16° SSE
STARLINK-1246 3.5 20:07:19 10° WSW 20:11:23 89° SSE 20:14:18 18° ENE
STARLINK-1097 3.8 20:08:30 10° WNW 20:12:38 63° NNE 20:14:29 30° E
Meteor 2-15 4.3 20:07:00 10° S 20:13:02 80° E 20:19:08 10° NNE
MOS 1 Rocket 3.8 20:08:02 10° NNE 20:13:04 46° E 20:18:14 10° S
STARLINK-1091 4.2 20:11:15 10° WNW 20:15:08 47° SW 20:17:02 26° SSE
Cosmos 292 Rocket 4.0 20:12:25 10° NNW 20:17:06 52° ENE 20:19:07 31° ESE
STARLINK-1099 3.7 20:13:30 10° WNW 20:17:38 66° NNE 20:19:17 34° E
Cosmos 1943 4.4 20:19:28 23° E 20:19:28 23° E 20:22:49 10° NE
Cosmos 1943 Rocket 2.2 20:14:24 10° NNW 20:19:56 66° ENE 20:22:51 28° SE
STARLINK-1224 3.5 20:16:11 10° WSW 20:20:14 82° NNW 20:22:45 22° ENE
STARLINK-1104 3.7 20:18:29 10° WNW 20:22:38 69° NNE 20:24:04 38° E
Cosmos 2074 Rocket 4.1 20:16:42 10° N 20:22:53 58° ENE 20:26:45 24° SSE
STARLINK-1225 3.6 20:20:54 10° WSW 20:24:56 78° NNW 20:27:16 24° ENE
USA 186 4.0 20:22:54 10° SSW 20:25:52 27° W 20:28:50 10° NW
STARLINK-1203 3.6 20:22:36 10° WSW 20:26:33 72° NNW 20:28:44 25° ENE
STARLINK-1144 3.6 20:23:27 10° WNW 20:27:35 73° NNE 20:28:50 43° E
IRIDIUM 106 4.2 20:23:44 10° N 20:29:00 81° E 20:32:56 18° S
STARLINK-1234 4.0 20:26:09 10° W 20:29:00 39° NNW 20:29:59 29° NNE
Cosmos 1437 3.9 20:26:37 10° N 20:28:32 27° NE 20:28:32 27° NE
STARLINK-1230 3.7 20:25:33 10° WSW 20:29:35 74° NNW 20:31:44 26° ENE
Cosmos 1626 Rocket 4.2 20:25:52 10° NNW 20:30:12 55° W 20:34:23 10° S
Cosmos 1626 3.9 20:27:07 10° NNW 20:30:27 32° W 20:33:45 10° SSW
Cosmos 1953 2.2 20:29:29 32° SSE 20:31:09 66° E 20:35:06 10° NNE
Meteor 2-10 4.2 20:28:33 22° SSE 20:31:51 52° E 20:37:12 10° NNE
NOSS 3-3 (A) 4.3 20:26:53 10° S 20:32:11 38° ESE 20:38:05 10° NE
NOSS 3-3 (C) 4.3 20:27:00 10° S 20:32:18 37° ESE 20:38:10 10° NE
STARLINK-1103 3.6 20:28:25 10° WNW 20:32:34 77° NNE 20:33:37 49° E
SPOT 1/Viking Rocket 4.4 20:32:06 29° E 20:33:04 31° ENE 20:37:35 10° N
Cosmos 2084 Rocket 3.5 20:29:36 10° NW 20:34:05 73° NE 20:35:19 46° ESE
STARLINK-1243 3.7 20:30:16 10° WSW 20:34:18 70° NNW 20:36:16 29° NE
Spot 2 Rocket 3.9 20:33:06 36° ESE 20:34:32 45° ENE 20:39:24 10° N
SL-16 R/B 2.5 20:28:55 10° SW 20:34:33 68° WNW 20:40:14 10° NNE
STARLINK-1101 3.5 20:33:25 10° WNW 20:37:34 81° NNE 20:38:25 55° ESE
Cosmos 1602 Rocket 4.1 20:33:23 10° NNW 20:37:48 59° W 20:41:06 17° S
STARLINK-1236 3.8 20:34:58 10° WSW 20:38:59 67° NNW 20:40:46 31° NE
Aureole 3 3.6 20:38:26 15° SSW 20:41:45 80° WNW 20:46:52 10° N
IGS 5A 4.4 20:42:14 31° ENE 20:42:14 31° ENE 20:45:38 10° N
STARLINK-1102 3.5 20:38:23 10° WNW 20:42:33 86° NNE 20:43:11 63° ESE
Aureole 2 Rocket 2.3 20:39:19 10° NNW 20:42:44 72° NE 20:42:44 72° NE
DMSP B5D2-2 4.1 20:41:04 10° NNE 20:46:19 84° WNW 20:51:32 10° SSW
H-2A R/B 4.0 20:41:59 10° SSW 20:46:31 28° W 20:50:59 10° NW
STARLINK-1111 3.4 20:43:21 10° WNW 20:47:31 89° SSW 20:47:58 71° ESE
STARLINK-1269 3.9 20:44:25 10° WSW 20:48:26 61° NNW 20:49:49 37° NE
Terra 3.4 20:49:37 20° NE 20:49:37 20° NE 20:52:43 10° NNE
STARLINK-1073 3.4 20:48:21 10° WNW 20:52:30 84° SSW 20:52:45 78° SE
STARLINK-1200 4.0 20:49:09 10° W 20:53:09 58° NNW 20:54:21 40° NE
Cosmos 1703 3.6 20:49:46 10° N 20:53:09 52° NE 20:53:09 52° NE
Cosmos 1726 Rocket 4.3 20:55:08 39° NE 20:55:08 39° NE 20:58:20 10° NNE
ATLAS 2AS CENTAUR R/B 3.4 20:47:18 10° NW 20:54:46 47° NE 20:57:41 32° E
Cosmos 1603 3.6 20:53:25 29° S 20:56:12 57° ESE 21:01:43 10° NE
Meteor 1-16 Rocket 4.0 20:54:16 36° S 20:56:28 72° E 21:01:55 10° NNE
Cosmos 1825 Rocket 3.4 20:52:47 10° N 20:57:15 88° E 20:57:50 67° SSE
STARLINK-1121 3.5 20:53:20 10° WNW 20:57:29 79° SSW 20:57:32 79° SSW
STARLINK-1192 4.1 20:53:50 10° W 20:57:49 56° NNW 20:58:49 42° NNE
USA 234 3.3 20:53:20 10° NE 20:59:54 80° NNW 21:06:26 10° WSW
STARLINK-1201 4.3 20:57:01 10° W 21:00:05 37° NNW 21:00:05 37° NNW
Cosmos 2327 Rocket 4.4 20:54:49 10° N 21:01:06 77° E 21:03:23 42° SSE
STARLINK-1106 3.6 20:58:18 10° WNW 21:02:18 73° SW 21:02:18 73° SW
STARLINK-1244 4.2 20:58:39 10° W 21:02:37 54° NNW 21:03:26 45° NNE
MetOp-B 4.0 21:01:14 49° SSE 21:02:46 87° ENE 21:08:10 10° NNW
Cosmos 1758 Rocket 3.8 21:02:11 10° NNW 21:06:31 63° W 21:07:20 51° SW
STARLINK-1138 4.2 21:03:23 10° W 21:07:21 52° NNW 21:07:58 47° NNE
STARLINK-1112 3.8 21:03:18 10° WNW 21:07:06 65° WSW 21:07:06 65° WSW
CZ-2C R/B 2.9 21:03:23 10° N 21:08:33 65° WNW 21:13:39 10° SSW
Cosmos 1992 Rocket 4.2 21:04:09 10° NNW 21:09:20 64° WSW 21:10:43 45° SSW
COSMOS 2455 4.0 21:04:34 10° NNW 21:09:47 29° NE 21:11:09 26° ENE
Meteor 1-11 4.2 21:05:27 10° N 21:11:16 70° ENE 21:12:06 61° SE
STARLINK-1143 4.3 21:08:12 10° W 21:12:10 50° NNW 21:12:34 48° N
STARLINK-1128 4.0 21:08:18 10° WNW 21:11:54 58° WSW 21:11:54 58° WSW
Cosmos 1953 Rocket 3.5 21:08:25 10° N 21:12:43 82° NNE 21:12:43 82° NNE
Cosmos 2184 Rocket 4.3 21:07:24 10° NNW 21:13:41 66° W 21:17:03 28° SSW
Cosmos 1295 Rocket 4.4 21:09:27 10° N 21:15:42 69° ENE 21:16:48 58° SE
SL-8 R/B 3.6 21:11:23 10° WNW 21:16:00 79° SW 21:16:00 79° SW
Cosmos 2251 Rocket 3.7 21:11:51 10° SSW 21:17:11 73° WNW 21:22:36 10° NNE
STARLINK-1113 4.2 21:13:17 10° WNW 21:16:41 51° WSW 21:16:41 51° WSW
Meteor 2-17 Rocket 4.3 21:13:22 10° N 21:19:32 89° E 21:20:59 56° S
Cosmos 1606 Rocket 3.7 21:20:20 74° WNW 21:20:20 74° WNW 21:24:39 10° N
Cosmos 1656 Rocket 3.5 21:16:32 10° NNW 21:22:15 74° ENE 21:22:37 71° E
STARLINK-1119 4.5 21:18:16 10° WNW 21:21:27 45° W 21:21:27 45° W
STARLINK-1241 4.4 21:18:36 10° W 21:22:24 46° NNW 21:22:24 46° NNW
ISS -1.7 21:19:27 10° WNW 21:21:09 27° WNW 21:21:09 27° WNW
USA 245 4.0 21:27:48 67° SW 21:28:16 72° WSW 21:34:01 10° NNW
ERS-1 Rocket 3.1 21:28:47 63° NE 21:28:47 63° NE 21:33:20 10° N
BREEZE-M DEB (TANK) 4.3 21:25:32 10° W 21:26:52 18° W 21:26:52 18° W
Resurs 01 Rocket 3.3 21:30:38 24° SW 21:32:01 28° W 21:35:50 10° NW
SPOT 5 3.6 21:35:18 41° NNE 21:35:18 41° NNE 21:38:19 10° N
Cosmos 2154 Rocket 4.2 21:28:17 10° NNW 21:34:38 71° W 21:36:21 49° SSW
Cosmos 2369 Rocket 3.0 21:33:13 10° NW 21:38:35 44° WSW 21:39:39 39° SW
Cosmos 1726 4.1 21:40:56 27° WNW 21:41:02 27° WNW 21:44:18 10° NNW
Landsat 7 4.3 21:45:26 57° WNW 21:45:26 57° WNW 21:49:44 10° NNW
Cosmos 967 Rocket 4.5 21:40:04 10° SW 21:46:31 83° NW 21:53:04 10° NE
Cosmos 2228 4.2 21:47:49 40° WNW 21:47:49 40° WNW 21:51:35 10° N
Cosmos 962 Rocket 4.3 21:44:25 10° N 21:50:40 83° W 21:50:55 80° SW
SL-8 Rocket 4.0 21:50:38 10° N 21:56:35 74° NE 21:56:35 74° NE
Cosmos 2058 Rocket 4.5 22:01:24 37° NNW 22:01:24 37° NNW 22:04:20 10° N
Cosmos 1943 3.6 22:01:06 54° W 22:01:58 61° WNW 22:07:38 10° NNE
Cosmos 1943 Rocket 4.0 21:59:04 10° NW 22:03:10 21° W 22:04:24 20° WSW
Cosmos 2366 rocket 4.2 21:58:00 10° N 22:03:18 61° NNE 22:03:18 61° NNE
Mayak 1.6 22:06:53 10° NNE 22:06:55 10° NNE 22:06:55 10° NNE
NOSS 3-4 (A) 3.7 22:06:20 10° NW 22:13:19 86° SW 22:13:24 86° SSW
NOSS 3-4 (C) 3.7 22:06:26 10° NW 22:13:25 87° SW 22:13:30 86° SSW
Terra 3.3 22:28:29 34° NW 22:28:29 34° NW 22:31:20 10° NNW
USA 234 4.2 22:36:23 10° ENE 22:42:30 44° NNW 22:48:37 10° W
ATLAS 2AS CENTAUR R/B 3.3 22:38:37 10° NW 22:45:08 53° W 22:45:08 53° W
Cosmos 1980 Rocket 4.2 22:47:16 10° N 22:50:54 19° NE 22:50:54 19° NE
COSMOS 2455 3.8 22:50:15 10° NW 22:54:18 44° NW 22:54:18 44° NW
Mayak 1.9 23:43:03 10° NNW 23:43:29 12° NNW 23:43:29 12° NNW
CZ-4C R/B 3.6 23:45:06 10° NW 23:51:41 45° NE 23:51:42 45° NE
